| time (UTC) | temp F | wind direction | speed MPH | gust MPH | rain 1hr in | rain 24hr in | rain mn in | humidity % | barometer mb |
| 20260831041931 | 61 | 259 | 0.0 | 0.0 | 0.00 | 0.00 | 0.00 | 90 | 1015.8 |
| 20260831041430 | 61 | 259 | 0.0 | 2.0 | 0.00 | 0.00 | 0.00 | 90 | 1015.7 |
| 20260831040930 | 61 | 259 | 1.0 | 3.0 | 0.00 | 0.00 | 0.00 | 90 | 1015.8 |
| 20260831040430 | 61 | 184 | 2.0 | 4.0 | 0.00 | 0.00 | 0.00 | 90 | 1015.8 |
| 20260831035932 | 61 | 185 | 2.0 | 5.0 | 0.00 | 0.00 | 0.00 | 90 | 1015.7 |
| 20260831035429 | 61 | 171 | 1.0 | 5.0 | 0.00 | 0.00 | 0.00 | 90 | 1015.7 |
| 20260831034931 | 61 | 106 | 0.0 | 3.0 | 0.00 | 0.00 | 0.00 | 90 | 1015.7 |
| 20260831034431 | 61 | 101 | 0.0 | 3.0 | 0.00 | 0.00 | 0.00 | 90 | 1015.8 |
| 20260831033932 | 61 | 101 | 1.0 | 3.0 | 0.00 | 0.00 | 0.00 | 90 | 1015.8 |
| 20260831033431 | 61 | 128 | 0.0 | 2.0 | 0.00 | 0.00 | 0.00 | 90 | 1015.8 |
| 20260831032930 | 61 | 128 | 1.0 | 4.0 | 0.00 | 0.00 | 0.00 | 90 | 1015.8 |
| 20260831032431 | 61 | 128 | 1.0 | 4.0 | 0.00 | 0.00 | 0.00 | 90 | 1015.8 |
| 20260831031932 | 61 | 0 | 2.0 | 5.0 | 0.00 | 0.00 | 0.00 | 90 | 1015.9 |
| 20260831031427 | 61 | 292 | 2.0 | 5.0 | 0.00 | 0.00 | 0.00 | 90 | 1015.9 |
| 20260831030926 | 61 | 9 | 1.0 | 4.0 | 0.00 | 0.00 | 0.00 | 90 | 1015.7 |
| 20260831030426 | 61 | 26 | 1.0 | 4.0 | 0.00 | 0.00 | 0.00 | 90 | 1015.6 |
| 20260831025927 | 61 | 82 | 2.0 | 5.0 | 0.00 | 0.00 | 0.00 | 90 | 1015.5 |
| 20260831025426 | 61 | 64 | 2.0 | 5.0 | 0.00 | 0.00 | 0.00 | 90 | 1015.6 |
| 20260831024927 | 61 | 77 | 1.0 | 4.0 | 0.00 | 0.00 | 0.00 | 90 | 1016.1 |
| 20260831024426 | 60 | 279 | 3.0 | 9.0 | 0.00 | 0.00 | 0.00 | 89 | 1016.2 |
| 20260831023921 | 60 | 279 | 2.0 | 9.0 | 0.00 | 0.00 | 0.00 | 90 | 1016.3 |
| 20260831023423 | 60 | 34 | 0.0 | 4.0 | 0.00 | 0.00 | 0.00 | 90 | 1016.1 |
| 20260831022922 | 60 | 59 | 0.0 | 0.0 | 0.00 | 0.00 | 0.00 | 89 | 1016.1 |
| 20260831022422 | 60 | 43 | 0.0 | 0.0 | 0.00 | 0.00 | 0.00 | 90 | 1016.1 |
| 20260831021923 | 60 | 128 | 0.0 | 0.0 | 0.00 | 0.00 | 0.00 | 90 | 1016.1 |
| 20260831021420 | 60 | 192 | 0.0 | 0.0 | 0.00 | 0.00 | 0.00 | 90 | 1016.5 |
| 20260831020920 | 60 | 192 | 0.0 | 0.0 | 0.00 | 0.00 | 0.00 | 90 | 1016.7 |
| 20260831020418 | 60 | 192 | 0.0 | 0.0 | 0.00 | 0.00 | 0.00 | 89 | 1016.8 |
| 20260831015916 | 60 | 192 | 0.0 | 0.0 | 0.00 | 0.00 | 0.00 | 90 | 1016.8 |
| 20260831015414 | 59 | 192 | 0.0 | 0.0 | 0.00 | 0.00 | 0.00 | 90 | 1016.8 |
| 20260831014916 | 59 | 213 | 0.0 | 0.0 | 0.00 | 0.00 | 0.00 | 89 | 1016.8 |
| 20260831014413 | 59 | 213 | 0.0 | 0.0 | 0.00 | 0.00 | 0.00 | 89 | 1016.8 |
| 20260831013912 | 59 | 213 | 0.0 | 0.0 | 0.00 | 0.00 | 0.00 | 90 | 1016.8 |
| 20260831013412 | 58 | 213 | 0.0 | 0.0 | 0.00 | 0.00 | 0.00 | 90 | 1016.8 |
| 20260831012910 | 58 | 213 | 0.0 | 0.0 | 0.00 | 0.00 | 0.00 | 90 | 1016.7 |
| 20260831012408 | 58 | 214 | 0.0 | 0.0 | 0.00 | 0.00 | 0.00 | 90 | 1016.7 |
| 20260831011906 | 58 | 229 | 0.0 | 0.0 | 0.00 | 0.00 | 0.00 | 89 | 1016.7 |
| 20260831011405 | 58 | 49 | 0.0 | 0.0 | 0.00 | 0.00 | 0.00 | 88 | 1016.5 |
| 20260831010907 | 58 | 49 | 0.0 | 0.0 | 0.00 | 0.00 | 0.00 | 88 | 1016.5 |
| 20260831010411 | 58 | 49 | 0.0 | 0.0 | 0.00 | 0.00 | 0.00 | 88 | 1016.5 |
| 20260831005911 | 58 | 49 | 0.0 | 0.0 | 0.00 | 0.00 | 0.00 | 87 | 1016.5 |
| 20260831005406 | 58 | 49 | 0.0 | 0.0 | 0.00 | 0.00 | 0.00 | 87 | 1016.5 |
| 20260831004906 | 58 | 49 | 0.0 | 0.0 | 0.00 | 0.00 | 0.00 | 87 | 1016.3 |
| 20260831004403 | 58 | 49 | 0.0 | 0.0 | 0.00 | 0.00 | 0.00 | 87 | 1016.3 |
| 20260831003904 | 58 | 49 | 0.0 | 0.0 | 0.00 | 0.00 | 0.00 | 87 | 1016.5 |
| 20260831003402 | 58 | 49 | 0.0 | 0.0 | 0.00 | 0.00 | 0.00 | 87 | 1016.6 |
| 20260831002902 | 58 | 49 | 0.0 | 0.0 | 0.00 | 0.00 | 0.00 | 87 | 1016.6 |
| 20260831002402 | 58 | 49 | 0.0 | 0.0 | 0.00 | 0.00 | 0.00 | 87 | 1016.6 |
| 20260831001911 | 58 | 49 | 0.0 | 0.0 | 0.00 | 0.00 | 0.00 | 86 | 1016.7 |
| 20260831001357 | 58 | 49 | 0.0 | 0.0 | 0.00 | 0.00 | 0.00 | 86 | 1016.7 |
| 20260831000856 | 58 | 49 | 0.0 | 0.0 | 0.00 | 0.00 | 0.00 | 86 | 1016.6 |
| 20260831000355 | 58 | 50 | 0.0 | 0.0 | 0.00 | 0.00 | 0.00 | 86 | 1016.6 |
| 20260830235852 | 58 | 46 | 0.0 | 0.0 | 0.00 | 0.00 | 0.00 | 86 | 1016.6 |
| 20260830235348 | 58 | 44 | 0.0 | 0.0 | 0.00 | 0.00 | 0.00 | 87 | 1016.7 |
| 20260830234847 | 58 | 44 | 0.0 | 0.0 | 0.00 | 0.00 | 0.00 | 87 | 1016.7 |
| 20260830234346 | 58 | 44 | 0.0 | 0.0 | 0.00 | 0.00 | 0.00 | 88 | 1016.7 |
| 20260830233845 | 58 | 44 | 0.0 | 0.0 | 0.00 | 0.00 | 0.00 | 88 | 1016.7 |
| 20260830233345 | 58 | 27 | 0.0 | 0.0 | 0.00 | 0.00 | 0.00 | 87 | 1016.9 |
| 20260830232845 | 58 | 27 | 0.0 | 0.0 | 0.00 | 0.00 | 0.00 | 87 | 1016.9 |
| 20260830232343 | 58 | 26 | 0.0 | 0.0 | 0.00 | 0.00 | 0.00 | 86 | 1016.8 |
| 20260830231840 | 58 | 44 | 0.0 | 0.0 | 0.00 | 0.00 | 0.00 | 85 | 1016.8 |
| 20260830231339 | 58 | 67 | 0.0 | 0.0 | 0.00 | 0.00 | 0.00 | 85 | 1016.8 |
| 20260830230836 | 58 | 67 | 0.0 | 0.0 | 0.00 | 0.00 | 0.00 | 85 | 1016.9 |
| 20260830230336 | 58 | 67 | 0.0 | 0.0 | 0.00 | 0.00 | 0.00 | 85 | 1016.9 |
| 20260830225835 | 58 | 67 | 0.0 | 0.0 | 0.00 | 0.00 | 0.00 | 85 | 1017.0 |
| 20260830225336 | 58 | 67 | 0.0 | 0.0 | 0.00 | 0.00 | 0.00 | 85 | 1017.0 |
| 20260830224832 | 59 | 67 | 0.0 | 0.0 | 0.00 | 0.00 | 0.00 | 85 | 1017.1 |
| 20260830224329 | 59 | 67 | 0.0 | 0.0 | 0.00 | 0.00 | 0.00 | 85 | 1017.0 |
| 20260830223829 | 58 | 67 | 0.0 | 0.0 | 0.00 | 0.00 | 0.00 | 85 | 1017.1 |
| 20260830223329 | 58 | 67 | 0.0 | 0.0 | 0.00 | 0.00 | 0.00 | 85 | 1017.1 |
| 20260830222831 | 59 | 67 | 0.0 | 0.0 | 0.00 | 0.00 | 0.00 | 85 | 1017.1 |
| 20260830222329 | 59 | 71 | 0.0 | 0.0 | 0.00 | 0.00 | 0.00 | 85 | 1017.2 |
| 20260830221829 | 59 | 71 | 0.0 | 0.0 | 0.00 | 0.00 | 0.00 | 85 | 1017.1 |
| 20260830221326 | 59 | 71 | 0.0 | 0.0 | 0.00 | 0.00 | 0.00 | 85 | 1017.1 |
| 20260830220829 | 59 | 71 | 0.0 | 0.0 | 0.00 | 0.00 | 0.00 | 85 | 1017.2 |
| 20260830220327 | 59 | 74 | 0.0 | 0.0 | 0.00 | 0.00 | 0.00 | 84 | 1017.2 |
| 20260830215826 | 59 | 74 | 0.0 | 0.0 | 0.00 | 0.00 | 0.00 | 83 | 1017.1 |
| 20260830215324 | 59 | 74 | 0.0 | 0.0 | 0.00 | 0.00 | 0.00 | 83 | 1017.1 |
| 20260830214825 | 59 | 74 | 0.0 | 0.0 | 0.00 | 0.00 | 0.00 | 84 | 1017.2 |
| 20260830214319 | 59 | 74 | 0.0 | 0.0 | 0.00 | 0.00 | 0.00 | 84 | 1017.2 |
| 20260830213819 | 59 | 74 | 0.0 | 0.0 | 0.00 | 0.00 | 0.00 | 83 | 1017.2 |
| 20260830213319 | 59 | 74 | 0.0 | 0.0 | 0.00 | 0.00 | 0.00 | 83 | 1017.2 |
| 20260830212814 | 59 | 74 | 0.0 | 0.0 | 0.00 | 0.00 | 0.00 | 83 | 1017.3 |
| 20260830212313 | 60 | 74 | 0.0 | 0.0 | 0.00 | 0.00 | 0.00 | 83 | 1017.3 |
| 20260830211812 | 60 | 74 | 0.0 | 0.0 | 0.00 | 0.00 | 0.00 | 82 | 1017.2 |
| 20260830211312 | 60 | 74 | 0.0 | 0.0 | 0.00 | 0.00 | 0.00 | 81 | 1017.2 |
| 20260830210810 | 60 | 74 | 0.0 | 0.0 | 0.00 | 0.00 | 0.00 | 81 | 1017.2 |
| 20260830210311 | 60 | 74 | 0.0 | 0.0 | 0.00 | 0.00 | 0.00 | 81 | 1017.2 |
| 20260830205812 | 60 | 88 | 0.0 | 0.0 | 0.00 | 0.00 | 0.00 | 79 | 1017.1 |
| 20260830205310 | 61 | 89 | 0.0 | 0.0 | 0.00 | 0.00 | 0.00 | 79 | 1017.1 |
| 20260830204810 | 61 | 89 | 0.0 | 0.0 | 0.00 | 0.00 | 0.00 | 79 | 1017.2 |
| 20260830204307 | 61 | 89 | 0.0 | 0.0 | 0.00 | 0.00 | 0.00 | 79 | 1017.1 |
| 20260830203804 | 61 | 89 | 0.0 | 0.0 | 0.00 | 0.00 | 0.00 | 79 | 1017.1 |
| 20260830203304 | 62 | 89 | 0.0 | 0.0 | 0.00 | 0.00 | 0.00 | 79 | 1017.1 |
| 20260830202804 | 62 | 89 | 0.0 | 0.0 | 0.00 | 0.00 | 0.00 | 79 | 1017.0 |
| 20260830202305 | 62 | 89 | 0.0 | 0.0 | 0.00 | 0.00 | 0.00 | 79 | 1017.0 |
| 20260830201801 | 62 | 89 | 0.0 | 0.0 | 0.00 | 0.00 | 0.00 | 78 | 1017.0 |
| 20260830201301 | 62 | 89 | 0.0 | 0.0 | 0.00 | 0.00 | 0.00 | 79 | 1016.9 |
| 20260830200753 | 62 | 89 | 0.0 | 0.0 | 0.00 | 0.00 | 0.00 | 77 | 1016.9 |
| 20260830200253 | 63 | 207 | 0.0 | 0.0 | 0.00 | 0.00 | 0.00 | 76 | 1017.0 |
| 20260830195740 | 63 | 190 | 0.0 | 1.0 | 0.00 | 0.00 | 0.00 | 75 | 1016.9 |
| 20260830195242 | 63 | 190 | 1.0 | 2.0 | 0.00 | 0.00 | 0.00 | 74 | 1016.9 |
| 20260830194731 | 64 | 190 | 1.0 | 2.0 | 0.00 | 0.00 | 0.00 | 74 | 1016.9 |
| 20260830194224 | 64 | 190 | 0.0 | 2.0 | 0.00 | 0.00 | 0.00 | 74 | 1016.9 |
| 20260830193721 | 65 | 191 | 0.0 | 0.0 | 0.00 | 0.00 | 0.00 | 74 | 1016.9 |
| 20260830193214 | 65 | 191 | 0.0 | 0.0 | 0.00 | 0.00 | 0.00 | 73 | 1017.0 |
| 20260830192714 | 65 | 191 | 0.0 | 0.0 | 0.00 | 0.00 | 0.00 | 73 | 1016.9 |
| 20260830192215 | 66 | 191 | 0.0 | 0.0 | 0.00 | 0.00 | 0.00 | 72 | 1016.9 |
| 20260830191713 | 66 | 191 | 0.0 | 2.0 | 0.00 | 0.00 | 0.00 | 72 | 1017.0 |
| 20260830191210 | 66 | 191 | 0.0 | 2.0 | 0.00 | 0.00 | 0.00 | 71 | 1017.0 |
| 20260830190710 | 67 | 191 | 1.0 | 1.0 | 0.00 | 0.00 | 0.00 | 71 | 1017.0 |
| 20260830190209 | 67 | 191 | 1.0 | 1.0 | 0.00 | 0.00 | 0.00 | 70 | 1016.9 |
| 20260830185708 | 68 | 191 | 0.0 | 1.0 | 0.00 | 0.00 | 0.00 | 69 | 1016.9 |
| 20260830185210 | 68 | 191 | 1.0 | 3.0 | 0.00 | 0.00 | 0.00 | 67 | 1017.0 |
| 20260830184709 | 69 | 191 | 1.0 | 3.0 | 0.00 | 0.00 | 0.00 | 66 | 1016.9 |
| 20260830184208 | 69 | 191 | 1.0 | 3.0 | 0.00 | 0.00 | 0.00 | 66 | 1016.9 |
| 20260830183709 | 69 | 192 | 1.0 | 3.0 | 0.00 | 0.00 | 0.00 | 64 | 1016.8 |
| 20260830183212 | 70 | 192 | 1.0 | 3.0 | 0.00 | 0.00 | 0.00 | 64 | 1016.6 |
| 20260830182706 | 70 | 189 | 0.0 | 1.0 | 0.00 | 0.00 | 0.00 | 64 | 1016.6 |
| 20260830182204 | 71 | 189 | 1.0 | 2.0 | 0.00 | 0.00 | 0.00 | 60 | 1016.7 |
| 20260830181703 | 71 | 189 | 2.0 | 3.0 | 0.00 | 0.00 | 0.00 | 59 | 1016.7 |
| 20260830181203 | 72 | 189 | 1.0 | 4.0 | 0.00 | 0.00 | 0.00 | 58 | 1016.7 |
| 20260830180700 | 73 | 189 | 0.0 | 4.0 | 0.00 | 0.00 | 0.00 | 58 | 1016.6 |
| 20260830180153 | 73 | 278 | 0.0 | 0.0 | 0.00 | 0.00 | 0.00 | 57 | 1016.6 |
| 20260830175650 | 74 | 278 | 0.0 | 0.0 | 0.00 | 0.00 | 0.00 | 58 | 1016.5 |
| 20260830175148 | 74 | 278 | 0.0 | 0.0 | 0.00 | 0.00 | 0.00 | 55 | 1016.5 |
| 20260830174646 | 75 | 278 | 0.0 | 0.0 | 0.00 | 0.00 | 0.00 | 54 | 1016.5 |
| 20260830174147 | 75 | 278 | 0.0 | 2.0 | 0.00 | 0.00 | 0.00 | 52 | 1016.3 |
| 20260830173647 | 76 | 278 | 1.0 | 4.0 | 0.00 | 0.00 | 0.00 | 51 | 1016.2 |
| 20260830173143 | 76 | 278 | 2.0 | 4.0 | 0.00 | 0.00 | 0.00 | 51 | 1016.3 |
| 20260830172644 | 76 | 293 | 1.0 | 4.0 | 0.00 | 0.00 | 0.00 | 50 | 1016.3 |
| 20260830172143 | 77 | 288 | 1.0 | 3.0 | 0.00 | 0.00 | 0.00 | 49 | 1016.3 |
| 20260830171643 | 77 | 288 | 1.0 | 3.0 | 0.00 | 0.00 | 0.00 | 48 | 1016.3 |
| 20260830171141 | 78 | 288 | 1.0 | 4.0 | 0.00 | 0.00 | 0.00 | 48 | 1016.3 |
| 20260830170643 | 78 | 288 | 2.0 | 5.0 | 0.00 | 0.00 | 0.00 | 47 | 1016.2 |
| 20260830170138 | 78 | 290 | 3.0 | 6.0 | 0.00 | 0.00 | 0.00 | 47 | 1016.1 |
| 20260830165636 | 78 | 273 | 3.0 | 6.0 | 0.00 | 0.00 | 0.00 | 47 | 1016.2 |
| 20260830165135 | 79 | 316 | 2.0 | 5.0 | 0.00 | 0.00 | 0.00 | 46 | 1016.2 |
| 20260830164633 | 79 | 257 | 2.0 | 5.0 | 0.00 | 0.00 | 0.00 | 46 | 1016.2 |
| 20260830164132 | 79 | 253 | 2.0 | 5.0 | 0.00 | 0.00 | 0.00 | 45 | 1016.2 |
| 20260830163632 | 80 | 284 | 3.0 | 7.0 | 0.00 | 0.00 | 0.00 | 45 | 1016.2 |
| 20260830163133 | 80 | 277 | 4.0 | 11.0 | 0.00 | 0.00 | 0.00 | 45 | 1016.2 |
| 20260830162632 | 80 | 269 | 3.0 | 11.0 | 0.00 | 0.00 | 0.00 | 43 | 1016.2 |
| 20260830162132 | 80 | 275 | 3.0 | 10.0 | 0.00 | 0.00 | 0.00 | 43 | 1016.3 |
| 20260830161633 | 81 | 292 | 4.0 | 10.0 | 0.00 | 0.00 | 0.00 | 42 | 1016.2 |
| 20260830161133 | 81 | 257 | 5.0 | 10.0 | 0.00 | 0.00 | 0.00 | 41 | 1016.3 |
| 20260830160633 | 81 | 293 | 5.0 | 12.0 | 0.00 | 0.00 | 0.00 | 42 | 1016.2 |
| 20260830160131 | 81 | 282 | 5.0 | 12.0 | 0.00 | 0.00 | 0.00 | 42 | 1016.3 |
| 20260830155633 | 82 | 254 | 4.0 | 9.0 | 0.00 | 0.00 | 0.00 | 42 | 1016.2 |
| 20260830155133 | 81 | 261 | 5.0 | 12.0 | 0.00 | 0.00 | 0.00 | 42 | 1016.3 |
| 20260830154633 | 81 | 189 | 6.0 | 12.0 | 0.00 | 0.00 | 0.00 | 41 | 1016.3 |
| 20260830154131 | 82 | 259 | 5.0 | 10.0 | 0.00 | 0.00 | 0.00 | 41 | 1016.3 |
| 20260830153632 | 82 | 270 | 5.0 | 12.0 | 0.00 | 0.00 | 0.00 | 41 | 1016.3 |
| 20260830153131 | 82 | 267 | 5.0 | 12.0 | 0.00 | 0.00 | 0.00 | 40 | 1016.3 |
| 20260830152632 | 82 | 252 | 6.0 | 10.0 | 0.00 | 0.00 | 0.00 | 40 | 1016.2 |
| 20260830152131 | 82 | 232 | 6.0 | 14.0 | 0.00 | 0.00 | 0.00 | 40 | 1016.3 |
| 20260830151632 | 82 | 251 | 5.0 | 14.0 | 0.00 | 0.00 | 0.00 | 41 | 1016.3 |
| 20260830151132 | 82 | 318 | 5.0 | 12.0 | 0.00 | 0.00 | 0.00 | 43 | 1016.3 |
| 20260830150628 | 82 | 290 | 5.0 | 12.0 | 0.00 | 0.00 | 0.00 | 43 | 1016.5 |
| 20260830150125 | 82 | 294 | 5.0 | 10.0 | 0.00 | 0.00 | 0.00 | 43 | 1016.5 |
| 20260830145615 | 82 | 241 | 5.0 | 13.0 | 0.00 | 0.00 | 0.00 | 42 | 1016.5 |
| 20260830145110 | 82 | 242 | 6.0 | 13.0 | 0.00 | 0.00 | 0.00 | 42 | 1016.5 |
| 20260830144602 | 82 | 232 | 7.0 | 14.0 | 0.00 | 0.00 | 0.00 | 41 | 1016.5 |
| 20260830144058 | 83 | 247 | 7.0 | 15.0 | 0.00 | 0.00 | 0.00 | 42 | 1016.5 |
| 20260830143546 | 83 | 214 | 6.0 | 15.0 | 0.00 | 0.00 | 0.00 | 41 | 1016.5 |
| 20260830143045 | 83 | 282 | 5.0 | 12.0 | 0.00 | 0.00 | 0.00 | 42 | 1016.6 |
| 20260830142538 | 83 | 250 | 4.0 | 12.0 | 0.00 | 0.00 | 0.00 | 41 | 1016.6 |
| 20260830142038 | 83 | 248 | 5.0 | 15.0 | 0.00 | 0.00 | 0.00 | 43 | 1016.6 |
| 20260830141547 | 83 | 265 | 6.0 | 15.0 | 0.00 | 0.00 | 0.00 | 43 | 1016.5 |
| 20260830141036 | 83 | 252 | 8.0 | 17.0 | 0.00 | 0.00 | 0.00 | 42 | 1016.5 |
| 20260830140538 | 83 | 228 | 9.0 | 17.0 | 0.00 | 0.00 | 0.00 | 40 | 1016.5 |
| 20260830140036 | 83 | 239 | 7.0 | 17.0 | 0.00 | 0.00 | 0.00 | 41 | 1016.5 |
| 20260830135535 | 83 | 279 | 6.0 | 12.0 | 0.00 | 0.00 | 0.00 | 40 | 1016.5 |
| 20260830135034 | 83 | 240 | 6.0 | 12.0 | 0.00 | 0.00 | 0.00 | 41 | 1016.3 |
| 20260830134535 | 83 | 251 | 6.0 | 17.0 | 0.00 | 0.00 | 0.00 | 42 | 1016.5 |
| 20260830134036 | 83 | 199 | 6.0 | 17.0 | 0.00 | 0.00 | 0.00 | 40 | 1016.5 |
| 20260830133535 | 83 | 263 | 7.0 | 13.0 | 0.00 | 0.00 | 0.00 | 41 | 1016.6 |
| 20260830133033 | 83 | 300 | 6.0 | 14.0 | 0.00 | 0.00 | 0.00 | 41 | 1016.6 |
| 20260830132530 | 83 | 221 | 6.0 | 14.0 | 0.00 | 0.00 | 0.00 | 42 | 1016.6 |
| 20260830132029 | 83 | 346 | 6.0 | 12.0 | 0.00 | 0.00 | 0.00 | 42 | 1016.6 |
| 20260830131529 | 83 | 240 | 5.0 | 13.0 | 0.00 | 0.00 | 0.00 | 45 | 1016.6 |
| 20260830131029 | 83 | 194 | 6.0 | 13.0 | 0.00 | 0.00 | 0.00 | 44 | 1016.7 |
| 20260830130532 | 83 | 268 | 6.0 | 12.0 | 0.00 | 0.00 | 0.00 | 45 | 1016.8 |
| 20260830130027 | 83 | 216 | 5.0 | 12.0 | 0.00 | 0.00 | 0.00 | 44 | 1016.8 |
| 20260830125522 | 83 | 291 | 6.0 | 12.0 | 0.00 | 0.00 | 0.00 | 44 | 1016.9 |
| 20260830125024 | 83 | 261 | 6.0 | 12.0 | 0.00 | 0.00 | 0.00 | 45 | 1016.9 |
| 20260830124522 | 82 | 209 | 6.0 | 14.0 | 0.00 | 0.00 | 0.00 | 45 | 1016.9 |
| 20260830124022 | 82 | 182 | 7.0 | 14.0 | 0.00 | 0.00 | 0.00 | 45 | 1017.1 |
| 20260830123524 | 82 | 227 | 7.0 | 14.0 | 0.00 | 0.00 | 0.00 | 46 | 1017.1 |
| 20260830123020 | 82 | 250 | 8.0 | 13.0 | 0.00 | 0.00 | 0.00 | 47 | 1017.1 |
| 20260830122521 | 81 | 240 | 8.0 | 14.0 | 0.00 | 0.00 | 0.00 | 45 | 1017.1 |
| 20260830122020 | 82 | 221 | 7.0 | 14.0 | 0.00 | 0.00 | 0.00 | 45 | 1017.2 |
| 20260830121536 | 82 | 234 | 5.0 | 13.0 | 0.00 | 0.00 | 0.00 | 47 | 1017.2 |
| 20260830121018 | 81 | 192 | 5.0 | 10.0 | 0.00 | 0.00 | 0.00 | 47 | 1017.1 |
| 20260830120537 | 81 | 303 | 5.0 | 10.0 | 0.00 | 0.00 | 0.00 | 47 | 1017.3 |
| 20260830120019 | 82 | 232 | 6.0 | 14.0 | 0.00 | 0.00 | 0.00 | 45 | 1017.3 |
| 20260830115518 | 82 | 281 | 7.0 | 14.0 | 0.00 | 0.00 | 0.00 | 46 | 1017.3 |
| 20260830115017 | 82 | 233 | 7.0 | 15.0 | 0.00 | 0.00 | 0.00 | 45 | 1017.3 |
| 20260830114520 | 81 | 255 | 8.0 | 15.0 | 0.00 | 0.00 | 0.00 | 48 | 1017.3 |
| 20260830114020 | 81 | 248 | 9.0 | 18.0 | 0.00 | 0.00 | 0.00 | 46 | 1017.3 |
| 20260830113506 | 80 | 212 | 9.0 | 18.0 | 0.00 | 0.00 | 0.00 | 46 | 1017.3 |
| 20260830113006 | 81 | 233 | 7.0 | 16.0 | 0.00 | 0.00 | 0.00 | 45 | 1017.3 |
| 20260830112507 | 81 | 213 | 7.0 | 15.0 | 0.00 | 0.00 | 0.00 | 47 | 1017.3 |
| 20260830112008 | 81 | 198 | 8.0 | 15.0 | 0.00 | 0.00 | 0.00 | 46 | 1017.4 |
| 20260830111506 | 80 | 227 | 8.0 | 16.0 | 0.00 | 0.00 | 0.00 | 46 | 1017.4 |
| 20260830111006 | 81 | 217 | 8.0 | 16.0 | 0.00 | 0.00 | 0.00 | 46 | 1017.5 |
| 20260830110504 | 81 | 238 | 7.0 | 14.0 | 0.00 | 0.00 | 0.00 | 47 | 1017.5 |
| 20260830110011 | 80 | 188 | 7.0 | 14.0 | 0.00 | 0.00 | 0.00 | 46 | 1017.6 |
| 20260830105505 | 80 | 297 | 6.0 | 14.0 | 0.00 | 0.00 | 0.00 | 47 | 1017.6 |
| 20260830105004 | 80 | 223 | 6.0 | 11.0 | 0.00 | 0.00 | 0.00 | 47 | 1017.7 |
| 20260830104502 | 80 | 255 | 7.0 | 14.0 | 0.00 | 0.00 | 0.00 | 47 | 1017.6 |
| 20260830104003 | 79 | 236 | 8.0 | 17.0 | 0.00 | 0.00 | 0.00 | 50 | 1017.7 |
| 20260830103504 | 79 | 209 | 8.0 | 17.0 | 0.00 | 0.00 | 0.00 | 47 | 1017.7 |
| 20260830103002 | 80 | 217 | 9.0 | 16.0 | 0.00 | 0.00 | 0.00 | 47 | 1017.7 |
| 20260830102502 | 79 | 196 | 7.0 | 15.0 | 0.00 | 0.00 | 0.00 | 48 | 1017.7 |
| 20260830102002 | 79 | 252 | 7.0 | 15.0 | 0.00 | 0.00 | 0.00 | 49 | 1017.8 |
| 20260830101502 | 80 | 230 | 8.0 | 15.0 | 0.00 | 0.00 | 0.00 | 46 | 1017.9 |
| 20260830101003 | 80 | 203 | 6.0 | 13.0 | 0.00 | 0.00 | 0.00 | 46 | 1017.9 |
| 20260830100502 | 80 | 201 | 6.0 | 14.0 | 0.00 | 0.00 | 0.00 | 47 | 1017.9 |
| 20260830100003 | 80 | 255 | 6.0 | 14.0 | 0.00 | 0.00 | 0.00 | 47 | 1018.1 |
| 20260830095503 | 79 | 218 | 7.0 | 15.0 | 0.00 | 0.00 | 0.00 | 47 | 1018.0 |
| 20260830095002 | 79 | 236 | 7.0 | 15.0 | 0.00 | 0.00 | 0.00 | 47 | 1018.1 |
| 20260830094503 | 79 | 278 | 7.0 | 18.0 | 0.00 | 0.00 | 0.00 | 49 | 1018.0 |
| 20260830094001 | 79 | 268 | 7.0 | 18.0 | 0.00 | 0.00 | 0.00 | 49 | 1018.0 |
| 20260830093450 | 78 | 254 | 6.0 | 14.0 | 0.00 | 0.00 | 0.00 | 48 | 1018.0 |
| 20260830092939 | 78 | 260 | 6.0 | 12.0 | 0.00 | 0.00 | 0.00 | 48 | 1018.0 |
| 20260830092431 | 78 | 298 | 7.0 | 14.0 | 0.00 | 0.00 | 0.00 | 50 | 1018.1 |
| 20260830091930 | 77 | 259 | 8.0 | 15.0 | 0.00 | 0.00 | 0.00 | 50 | 1018.1 |
| 20260830091430 | 77 | 260 | 8.0 | 15.0 | 0.00 | 0.00 | 0.00 | 49 | 1018.2 |
| 20260830090930 | 76 | 263 | 6.0 | 15.0 | 0.00 | 0.00 | 0.00 | 49 | 1018.1 |
| 20260830090430 | 76 | 260 | 4.0 | 11.0 | 0.00 | 0.00 | 0.00 | 53 | 1018.1 |
| 20260830085930 | 75 | 275 | 4.0 | 11.0 | 0.00 | 0.00 | 0.00 | 52 | 1018.2 |
| 20260830085430 | 75 | 290 | 4.0 | 11.0 | 0.00 | 0.00 | 0.00 | 54 | 1018.2 |
| 20260830084932 | 75 | 269 | 6.0 | 13.0 | 0.00 | 0.00 | 0.00 | 53 | 1018.4 |
| 20260830084431 | 76 | 223 | 7.0 | 14.0 | 0.00 | 0.00 | 0.00 | 51 | 1018.5 |
| 20260830083932 | 76 | 242 | 6.0 | 14.0 | 0.00 | 0.00 | 0.00 | 51 | 1018.4 |
| 20260830083430 | 76 | 274 | 6.0 | 14.0 | 0.00 | 0.00 | 0.00 | 54 | 1018.5 |
| 20260830082929 | 75 | 189 | 6.0 | 14.0 | 0.00 | 0.00 | 0.00 | 53 | 1018.5 |
| 20260830082430 | 74 | 288 | 6.0 | 14.0 | 0.00 | 0.00 | 0.00 | 53 | 1018.5 |
| 20260830081930 | 74 | 262 | 6.0 | 11.0 | 0.00 | 0.00 | 0.00 | 53 | 1018.5 |
| 20260830081430 | 73 | 288 | 7.0 | 13.0 | 0.00 | 0.00 | 0.00 | 56 | 1018.4 |
| 20260830080929 | 73 | 232 | 6.0 | 13.0 | 0.00 | 0.00 | 0.00 | 55 | 1018.4 |
| 20260830080430 | 73 | 261 | 5.0 | 11.0 | 0.00 | 0.00 | 0.00 | 59 | 1018.4 |
| 20260830075932 | 72 | 273 | 4.0 | 9.0 | 0.00 | 0.00 | 0.00 | 59 | 1018.4 |
| 20260830075429 | 72 | 258 | 5.0 | 9.0 | 0.00 | 0.00 | 0.00 | 58 | 1018.5 |
| 20260830074930 | 71 | 245 | 5.0 | 9.0 | 0.00 | 0.00 | 0.00 | 60 | 1018.5 |
| 20260830074428 | 71 | 262 | 4.0 | 9.0 | 0.00 | 0.00 | 0.00 | 61 | 1018.4 |
| 20260830073928 | 70 | 242 | 6.0 | 11.0 | 0.00 | 0.00 | 0.00 | 62 | 1018.4 |
| 20260830073429 | 70 | 209 | 6.0 | 11.0 | 0.00 | 0.00 | 0.00 | 63 | 1018.4 |
| 20260830072928 | 70 | 251 | 5.0 | 9.0 | 0.00 | 0.00 | 0.00 | 62 | 1018.4 |
| 20260830072426 | 69 | 254 | 4.0 | 9.0 | 0.00 | 0.00 | 0.00 | 63 | 1018.2 |
| 20260830071928 | 69 | 225 | 4.0 | 7.0 | 0.00 | 0.00 | 0.00 | 63 | 1018.2 |
| 20260830071424 | 69 | 230 | 3.0 | 7.0 | 0.00 | 0.00 | 0.00 | 64 | 1018.2 |
| 20260830070943 | 69 | 203 | 3.0 | 7.0 | 0.00 | 0.00 | 0.00 | 66 | 1018.1 |
| 20260830070419 | 68 | 213 | 3.0 | 7.0 | 0.00 | 0.00 | 0.00 | 68 | 1018.1 |
| 20260830065918 | 68 | 242 | 2.0 | 7.0 | 0.00 | 0.00 | 0.00 | 69 | 1018.1 |
| 20260830065419 | 67 | 202 | 0.0 | 0.0 | 0.00 | 0.00 | 0.00 | 70 | 1018.1 |
| 20260830064918 | 66 | 219 | 0.0 | 0.0 | 0.00 | 0.00 | 0.00 | 73 | 1018.0 |
| 20260830064417 | 65 | 207 | 0.0 | 0.0 | 0.00 | 0.00 | 0.00 | 75 | 1018.0 |
| 20260830063918 | 64 | 177 | 0.0 | 0.0 | 0.00 | 0.00 | 0.00 | 78 | 1018.0 |
| 20260830063416 | 63 | 201 | 0.0 | 0.0 | 0.00 | 0.00 | 0.00 | 81 | 1018.0 |
| 20260830062916 | 62 | 194 | 0.0 | 0.0 | 0.00 | 0.00 | 0.00 | 83 | 1018.0 |
| 20260830062416 | 61 | 229 | 0.0 | 0.0 | 0.00 | 0.00 | 0.00 | 84 | 1018.0 |
| 20260830061917 | 61 | 231 | 0.0 | 0.0 | 0.00 | 0.00 | 0.00 | 86 | 1017.9 |
| 20260830061417 | 60 | 214 | 0.0 | 0.0 | 0.00 | 0.00 | 0.00 | 91 | 1017.9 |
| 20260830060917 | 60 | 69 | 0.0 | 0.0 | 0.00 | 0.00 | 0.00 | 93 | 1017.9 |
| 20260830060416 | 59 | 19 | 0.0 | 0.0 | 0.00 | 0.00 | 0.00 | 95 | 1017.9 |
| 20260830055915 | 58 | 19 | 0.0 | 0.0 | 0.00 | 0.01 | 0.00 | 95 | 1017.9 |
| 20260830055414 | 58 | 19 | 0.0 | 0.0 | 0.00 | 0.01 | 0.00 | 95 | 1017.9 |
| 20260830054911 | 57 | 19 | 0.0 | 0.0 | 0.00 | 0.01 | 0.00 | 95 | 1017.8 |
| 20260830054411 | 56 | 19 | 0.0 | 0.0 | 0.00 | 0.01 | 0.00 | 95 | 1017.7 |
| 20260830053911 | 56 | 19 | 0.0 | 0.0 | 0.00 | 0.01 | 0.00 | 95 | 1017.7 |
| 20260830053404 | 55 | 19 | 0.0 | 0.0 | 0.00 | 0.01 | 0.00 | 95 | 1017.7 |
| 20260830052904 | 55 | 19 | 0.0 | 0.0 | 0.00 | 0.01 | 0.00 | 94 | 1017.6 |
| 20260830052406 | 54 | 19 | 0.0 | 0.0 | 0.00 | 0.01 | 0.00 | 94 | 1017.7 |
| 20260830051909 | 54 | 19 | 0.0 | 0.0 | 0.00 | 0.01 | 0.00 | 94 | 1017.7 |
| 20260830051414 | 53 | 19 | 0.0 | 0.0 | 0.00 | 0.01 | 0.00 | 94 | 1017.7 |
| 20260830050904 | 53 | 19 | 0.0 | 0.0 | 0.00 | 0.01 | 0.00 | 93 | 1017.7 |
| 20260830050403 | 53 | 19 | 0.0 | 0.0 | 0.00 | 0.01 | 0.00 | 93 | 1017.6 |
| 20260830045905 | 53 | 19 | 0.0 | 0.0 | 0.00 | 0.01 | 0.00 | 93 | 1017.7 |
| 20260830045406 | 53 | 19 | 0.0 | 0.0 | 0.00 | 0.01 | 0.00 | 93 | 1017.6 |
| 20260830044902 | 53 | 19 | 0.0 | 0.0 | 0.00 | 0.01 | 0.00 | 93 | 1017.6 |
| 20260830044401 | 53 | 19 | 0.0 | 0.0 | 0.00 | 0.01 | 0.00 | 93 | 1017.6 |
| 20260830043901 | 53 | 19 | 0.0 | 0.0 | 0.00 | 0.01 | 0.00 | 93 | 1017.6 |
| 20260830043359 | 53 | 19 | 0.0 | 0.0 | 0.00 | 0.01 | 0.00 | 93 | 1017.6 |
| 20260830042859 | 53 | 19 | 0.0 | 0.0 | 0.00 | 0.01 | 0.00 | 93 | 1017.4 |
| 20260830042358 | 53 | 19 | 0.0 | 0.0 | 0.00 | 0.01 | 0.00 | 93 | 1017.4 |